RH
74 73 73 71 71 72 69 65 63 58 51 43 32 19 11 7 6 6 5 5 4 4 3 3 4 4 5 6 7 9 11 13 16 19 23 26 31 35 39 44 48 52
73 73 72 69 68 69 68 67 68 68 65 61 55 46 32 20 12 8 7 6 6 6 5 4 4 4 3 4 4 4 4 5 6 8 9 11 13 16 19 23 26 31
76 74 72 69 67 64 63 61 62 65 67 67 64 61 55 44 32 21 14 10 8 6 6 6 5 5 5 5 4 5 4 4 4 4 5 5 6 6 8 9 12 15
76 74 72 70 67 65 63 60 57 56 60 65 65 64 63 61 55 43 29 20 17 13 9 8 6 5 5 5 5 5 5 5 5 4 4 4 4 4 4 5 5 7
74 75 76 75 74 71 69 66 62 57 54 57 61 64 64 64 63 59 46 30 25 24 21 17 14 12 10 9 9 8 7 7 7 7 7 6 6 5 5 5 5 4
74 76 78 77 74 71 69 67 63 60 56 54 55 58 62 64 63 63 56 42 30 28 28 25 23 21 19 17 16 15 14 14 14 14 14 13 12 11 10 9 8 8
75 74 74 73 71 70 71 71 67 62 58 56 55 55 57 62 63 61 58 52 41 31 29 29 29 29 28 27 24 24 27 30 30 29 26 25 25 24 21 19 16 14
77 78 78 76 75 75 78 81 80 75 67 61 57 56 56 59 62 62 57 54 51 42 33 30 33 36 36 35 34 36 41 45 45 42 40 42 45 44 41 36 31 27
84 85 84 81 80 80 84 89 90 88 84 77 66 59 58 59 61 63 59 54 53 51 43 34 33 37 39 37 38 40 44 48 51 51 52 55 57 59 58 52 46 41
90 88 87 87 87 87 90 93 94 94 97 96 84 66 60 63 64 63 61 57 54 54 53 46 37 34 36 37 37 39 43 48 51 53 53 55 59 64 65 63 57 50
94 96 97 96 95 93 93 95 97 97 99 103 99 79 64 66 69 66 64 64 62 59 58 58 49 38 36 38 37 39 44 49 51 51 51 54 60 67 71 73 71 64
97 103 103 99 97 97 96 97 99 100 99 100 103 94 80 76 77 77 76 74 73 70 66 69 63 47 37 37 37 41 50 55 55 55 57 62 68 73 77 82 83 78
96 101 103 101 98 97 98 98 98 101 100 99 101 100 97 94 93 94 93 89 89 87 81 80 71 51 38 38 40 46 55 61 63 65 70 76 81 83 86 89 92 90
98 98 101 102 102 100 99 99 99 100 100 100 100 100 100 101 100 102 102 102 103 99 91 85 70 49 39 40 44 53 63 68 73 77 81 85 88 90 91 92 95 96
94 97 100 102 104 105 102 100 100 101 100 100 100 100 101 102 103 103 102 102 100 95 89 79 62 46 42 45 51 63 73 79 82 84 85 89 94 97 98 97 97 98
75 81 88 95 101 105 104 103 101 100 101 101 100 100 100 103 105 105 102 100 97 92 83 68 53 46 47 53 62 74 82 87 88 88 90 97 103 104 104 102 99 100
63 62 65 71 79 86 93 100 103 103 103 103 103 103 102 103 105 102 98 95 91 83 72 60 53 53 56 62 73 82 89 93 94 94 96 102 106 106 103 100 97 99
60 57 54 54 54 57 62 71 82 91 97 102 105 107 105 103 100 94 88 83 78 72 66 61 59 61 66 75 83 88 94 97 97 98 99 103 106 104 102 99 96 98
51 51 50 50 48 47 47 48 52 58 67 77 87 95 101 103 102 97 90 83 77 73 70 69 70 72 76 81 86 90 92 93 94 96 97 98 100 100 101 101 101 102
43 43 43 44 44 46 48 49 49 49 48 50 54 60 69 79 88 95 97 97 94 89 84 79 77 76 78 80 81 83 84 84 86 91 95 96 95 95 98 103 105 106
40 46 48 48 47 48 48 50 52 54 54 53 51 49 49 51 55 61 69 79 87 93 96 97 94 89 85 81 79 77 76 78 81 87 92 95 96 94 94 100 106 107
52 62 67 68 67 67 67 66 65 65 65 64 60 56 54 52 51 49 48 50 54 61 70 79 88 95 97 95 92 88 84 83 84 88 89 89 91 93 92 95 103 106
65 71 74 78 81 86 89 91 90 88 86 84 78 70 63 59 56 53 50 49 48 47 48 50 53 60 69 78 85 89 90 89 87 86 86 85 87 90 90 94 100 105
66 67 71 76 83 89 94 96 97 97 96 97 97 94 87 78 69 60 52 51 53 54 55 55 52 49 46 48 52 59 70 78 83 85 87 88 91 92 91 93 97 103
58 60 63 70 78 84 87 87 88 91 92 93 94 96 95 88 81 74 63 52 51 59 63 65 68 69 65 57 48 42 44 53 65 77 86 91 94 95 94 94 96 101
50 52 56 65 75 83 85 83 82 83 84 83 83 86 91 91 87 84 76 60 53 61 70 73 75 78 80 78 68 50 38 39 46 56 72 87 94 95 95 95 96 98
Wind_Speed
35 35 35 35 34 34 34 34 33 32 32 31 32 34 38 43 49 55 61 67 73 79 85 90 94 98 100 102 103 105 107 109 111 113 115 116 117 117 117 117 117 117
35 35 35 35 34 34 35 34 34 34 33 31 30 29 30 32 35 40 44 49 55 62 68 74 79 84 88 91 93 95 97 99 101 103 104 106 108 109 111 114 116 117
34 34 34 34 34 34 34 34 34 34 33 32 30 28 27 27 27 29 33 36 41 46 52 57 62 68 72 76 79 81 83 85 87 89 91 92 95 97 99 103 107 111
33 33 33 33 33 33 33 33 33 33 33 32 31 29 27 26 26 26 27 28 30 33 37 41 46 51 55 59 62 65 67 70 72 75 77 79 82 84 86 89 93 97
32 33 33 32 32 32 32 32 32 32 31 31 31 30 27 26 26 25 25 25 24 25 26 29 32 35 39 43 46 49 51 54 56 58 61 63 66 69 72 76 79 83
32 31 31 31 31 32 32 32 31 31 30 29 29 29 28 27 25 25 25 24 23 22 22 23 24 26 28 31 33 34 36 37 39 41 44 47 50 54 57 61 65 69
30 29 29 30 32 32 31 30 29 29 29 28 28 28 28 27 26 25 25 24 22 21 20 20 20 21 22 23 24 24 25 26 28 31 33 35 37 40 43 46 50 54
29 28 29 31 32 32 30 27 25 25 25 25 25 25 26 26 27 26 25 24 22 21 20 20 20 20 20 20 20 19 20 22 25 26 27 28 30 32 34 37 40 42
29 28 29 30 31 30 28 25 23 22 21 21 21 22 23 24 25 26 26 25 23 21 20 20 21 21 20 20 19 19 20 22 24 24 25 27 28 29 31 33 34 36
28 28 29 30 31 30 27 24 22 20 18 17 16 18 19 20 22 25 25 25 25 23 21 20 20 21 20 20 20 19 20 22 23 25 26 27 28 29 30 31 33 34
27 27 28 29 29 28 27 24 21 19 16 13 11 12 15 17 19 22 24 25 25 24 22 20 19 20 20 21 19 19 19 21 23 24 24 24 25 26 28 30 32 33
26 26 26 27 27 27 27 26 23 19 16 12 8 6 10 13 15 19 22 24 24 23 21 19 18 19 21 21 19 18 18 20 20 20 19 19 21 23 25 28 30 33
24 24 25 25 26 26 26 25 24 22 18 14 9 5 4 8 11 14 17 20 21 20 18 17 18 19 20 20 18 17 17 18 17 17 16 17 19 21 24 27 29 31
23 23 24 24 25 25 25 24 24 23 20 17 13 9 5 3 5 8 11 13 15 16 16 16 17 19 19 17 16 16 16 16 16 16 16 17 19 21 24 26 28 30
24 23 23 23 24 24 24 24 23 22 21 19 16 13 9 5 2 2 5 8 10 12 14 15 16 17 16 15 15 16 16 16 16 16 17 18 19 20 23 25 27 29
25 24 23 24 24 24 23 23 22 21 20 19 17 14 11 8 5 2 2 5 8 10 12 13 14 14 14 15 15 16 16 16 17 17 17 18 19 20 22 24 26 28
26 26 25 25 25 25 24 23 22 20 19 18 17 15 12 9 7 4 3 4 6 8 10 11 12 13 14 15 16 17 17 17 18 18 18 19 20 21 22 24 25 27
26 26 25 25 25 24 24 23 22 21 19 17 15 14 12 10 8 6 5 5 6 8 9 11 13 14 15 16 17 18 18 19 19 19 20 20 21 21 22 23 25 26
26 26 26 25 24 24 24 23 22 21 19 18 16 14 13 11 10 8 7 7 8 9 11 12 14 16 17 18 19 19 20 20 21 21 21 21 22 22 22 23 24 25
26 26 25 25 24 24 23 23 22 22 21 20 18 17 15 13 11 10 10 9 10 11 13 14 16 17 19 20 21 21 22 22 22 22 22 22 22 22 22 22 23 25
25 25 25 24 24 23 23 22 21 21 21 21 20 19 17 15 14 12 11 11 11 12 13 14 16 18 19 20 21 22 23 23 24 24 24 24 23 23 23 23 23 24
25 26 25 25 25 24 23 23 22 21 21 20 19 18 18 17 16 15 13 12 12 12 12 14 15 16 18 20 21 22 23 24 25 25 26 25 25 24 24 23 22 23
25 25 25 25 24 24 23 23 22 21 21 20 19 18 17 17 16 16 15 15 14 13 12 12 13 14 16 18 19 21 22 23 24 25 26 25 25 24 24 23 22 22
23 24 24 24 24 23 23 23 22 22 21 21 20 19 18 17 15 15 15 15 15 14 13 12 11 11 12 14 17 18 19 20 21 21 22 23 23 23 22 23 22 21
21 22 23 23 23 23 23 23 23 23 22 22 22 21 20 18 16 14 14 15 15 14 13 12 12 11 11 11 12 15 17 18 18 18 18 18 20 21 22 22 22 21
19 20 20 21 21 21 22 23 23 24 24 24 24 24 23 21 18 15 13 13 14 14 13 12 12 11 11 11 11 12 14 16 16 15 15 15 16 18 20 21 21 21
Wind_Direction
301 299 297 295 293 291 290 289 288 287 286 284 281 275 269 263 259 256 253 251 249 249 248 249 249 249 249 250 250 250 250 250 249 249 248 248 248 247 247 247 248 248
304 302 300 297 294 291 289 287 285 284 283 283 281 280 277 271 265 261 256 252 249 248 247 247 246 247 247 248 248 249 249 250 250 250 250 249 248 248 247 247 246 246
309 306 304 300 297 294 291 287 284 281 280 280 279 276 275 274 270 265 260 255 252 249 248 246 245 245 246 246 247 247 248 248 248 249 249 248 248 247 247 246 245 245
313 311 308 305 301 298 294 290 285 281 278 276 275 273 270 269 268 266 263 259 254 250 248 246 245 244 244 244 245 246 246 247 247 247 248 248 248 247 247 246 245 245
318 316 314 311 307 303 299 294 288 283 278 274 272 270 267 264 262 262 262 260 255 251 247 244 242 241 240 241 242 243 244 245 246 246 247 247 247 247 246 246 246 245
323 320 317 315 312 309 304 298 292 286 280 274 269 266 264 261 259 257 258 259 256 251 247 243 239 237 236 237 238 239 240 241 241 242 243 243 244 245 245 245 245 245
327 325 324 323 320 316 311 304 297 289 282 275 268 263 259 258 256 255 254 255 254 251 246 241 236 234 232 232 233 233 233 233 234 236 238 239 241 242 243 244 244 244
333 333 333 331 328 325 320 313 305 296 287 278 268 261 255 253 253 253 252 251 251 250 245 239 234 231 231 232 232 230 227 228 231 234 234 234 236 238 240 241 242 243
339 339 340 340 338 335 329 321 314 306 296 284 270 259 252 247 247 249 250 249 249 248 244 239 235 233 234 236 235 231 228 228 231 232 232 232 233 236 239 241 242 243
343 345 346 346 346 345 339 331 324 316 308 294 275 257 248 243 240 243 247 248 247 246 243 240 237 235 236 238 238 235 232 231 231 232 233 233 234 236 240 242 244 245
349 351 351 351 352 353 352 347 339 333 326 314 289 258 244 239 237 237 241 244 245 244 242 240 237 234 235 239 242 239 235 233 233 235 236 236 237 239 242 243 244 246
356 357 355 354 356 360 1 0 357 353 348 340 321 273 242 236 235 235 236 239 242 244 243 239 235 232 233 238 242 240 236 235 236 238 240 241 243 245 245 245 245 245
0 1 0 359 0 4 6 8 9 9 7 5 359 334 264 242 239 238 237 238 240 243 241 235 231 229 232 238 242 240 237 237 240 241 243 244 245 246 245 244 244 245
4 6 6 5 5 7 9 10 13 14 15 17 18 16 4 300 255 243 238 235 235 236 234 230 228 229 234 240 242 240 238 240 243 245 246 246 247 246 246 245 244 244
8 11 13 13 12 11 11 12 14 15 16 19 21 23 24 23 6 250 229 225 227 228 228 228 229 232 238 243 243 242 242 244 246 248 249 250 251 250 249 247 245 243
12 13 17 19 19 17 15 14 15 16 16 17 18 19 20 21 16 347 256 234 231 231 231 232 235 239 244 246 246 246 247 249 251 253 255 256 256 254 251 249 246 243
15 16 19 21 22 22 20 18 16 16 16 16 15 14 14 13 8 350 307 266 249 243 241 242 244 248 250 250 251 252 253 254 256 257 258 259 258 255 252 249 246 242
17 19 20 21 22 23 23 21 18 16 15 15 13 11 9 5 358 345 323 294 273 262 256 255 255 255 255 256 256 257 258 258 259 259 259 260 258 256 253 250 247 242
22 24 25 25 25 26 26 25 22 19 16 14 12 10 6 0 351 339 321 302 285 274 266 263 260 259 258 258 259 260 261 261 261 261 262 262 261 259 256 252 247 242
26 25 25 26 26 27 28 28 27 25 22 19 16 13 8 1 351 339 323 308 292 280 271 266 262 260 259 258 258 258 259 260 261 262 263 264 263 262 259 253 247 241
21 21 21 21 22 23 24 25 26 26 24 22 20 18 14 9 1 351 338 323 308 295 284 275 269 265 262 260 259 258 257 258 258 260 261 263 263 262 259 254 247 240
18 20 20 20 21 21 20 21 21 21 20 18 17 16 14 13 9 4 357 347 333 317 303 291 282 275 270 266 263 260 259 259 258 259 260 260 260 259 256 252 247 240
18 19 20 20 19 19 18 17 16 15 14 12 11 9 7 6 5 4 2 360 354 344 330 313 298 288 281 276 271 266 263 261 260 260 260 258 256 255 252 249 245 239
16 17 18 19 19 19 18 17 16 15 12 9 7 4 0 356 354 355 357 358 358 357 352 342 328 314 300 288 280 274 269 266 262 260 259 256 252 250 247 245 244 240
13 14 15 17 20 22 22 21 20 19 17 14 12 9 3 358 354 352 354 355 359 2 1 355 349 342 333 316 296 281 272 268 265 261 257 255 251 248 244 242 241 240
9 11 14 17 20 24 25 24 22 21 19 18 18 16 13 10 5 1 356 355 359 3 2 359 355 351 348 341 325 300 276 264 263 262 258 255 252 249 245 242 240 238